Grand Junction, CO

4:18 AM MDT on October 15, 2019 (GMT -0600)
Walker

Weather History for KGJT - March, 2019

Change the Weather History Date:

Thursday, March 14, 2019

  Actual Average Record
Temperature  
Mean Temperature 35 °F 44 °F  
Max Temperature 43 °F 56 °F 73 °F (2007)
Min Temperature 27 °F 31 °F 10 °F (1964)
Degree Days  
Heating Degree Days 30 21  
Month to date heating degree days 321 324  
Since 1 July heating degree days 4776 4703  
Cooling Degree Days 0 0  
Month to date cooling degree days 0 0  
Year to date cooling degree days 0 0  
Moisture  
Dew Point 18 °F    
Average Humidity 57    
Maximum Humidity 78    
Minimum Humidity 36    
Precipitation  
Precipitation 0.00 in 0.03 in 0.96 in (1983)
Month to date precipitation 1.83 0.36  
Year to date precipitation 3.27 1.48  
Snow  
Snow 0.00 in 0.10 in 2.50 in (1956)
Month to date snowfall 0.0 1.2  
Since 1 July snowfall 17.4 16.7  
Snow Depth 0.00 in    
Sea Level Pressure  
Sea Level Pressure 30.19 in    
Wind  
Wind Speed 8 mph (North)    
Max Wind Speed 16 mph    
Max Gust Speed 22 mph    
Visibility 10 miles    
Events      
T = Trace of Precipitation, MM = Missing Value Source: NWS Daily Summary

Daily Weather History Graph

Daily Weather History Graph

Search for Another Location

Airport or City:

Astronomy

Mar. 14, 2019 Rise Set
Actual Time 7:27 AM MDT 7:19 PM MDT
Civil Twilight 7:00 AM MDT 7:46 PM MDT
Nautical Twilight 6:29 AM MDT 8:17 PM MDT
Astronomical Twilight 5:58 AM MDT 8:49 PM MDT
Moon 12:25 PM MDT (3/14) 2:25 AM MDT (3/14)
Length of Visible Light 12h 46m
Length of Day
11h 52m
First Quarter, 53% of the Moon is Illuminated
Mar 14
First Quarter
Mar 20
Full
Mar 27
Last Quarter
Apr 5
New
Apr 12
First Quarter

Hourly Weather History & Observations

Time (MDT) Temp. Windchill Dew Point Humidity Pressure Visibility Wind Dir Wind Speed Gust Speed Precip Events Conditions
12:53 AM 32.0 °F 28.7 °F 27.0 °F 82% 29.95 in 10.0 mi West 3.5 mph - N/A   Overcast
1:53 AM 33.1 °F 26.9 °F 24.1 °F 70% 29.97 in 10.0 mi NW 6.9 mph - N/A   Overcast
2:53 AM 33.1 °F 24.4 °F 21.0 °F 61% 29.99 in 10.0 mi North 11.5 mph - N/A   Overcast
3:53 AM 33.1 °F - 19.9 °F 59% 30.01 in 10.0 mi Calm Calm - N/A   Overcast
4:53 AM 32.0 °F 24.2 °F 19.9 °F 61% 30.04 in 10.0 mi North 9.2 mph - N/A   Overcast
5:53 AM 32.0 °F 22.5 °F 18.0 °F 56% 30.07 in 10.0 mi NNE 12.7 mph - N/A   Overcast
6:53 AM 30.9 °F 21.7 °F 18.0 °F 59% 30.12 in 10.0 mi NNE 11.5 mph - N/A   Overcast
7:53 AM 30.9 °F 22.8 °F 17.1 °F 57% 30.15 in 10.0 mi NNE 9.2 mph - N/A   Overcast
8:53 AM 30.9 °F 25.2 °F 17.1 °F 57% 30.19 in 10.0 mi North 5.8 mph - N/A   Overcast
9:53 AM 33.1 °F 28.7 °F 15.1 °F 48% 30.22 in 10.0 mi Variable 4.6 mph - N/A   Mostly Cloudy
10:53 AM 35.1 °F 29.3 °F 17.1 °F 48% 30.23 in 10.0 mi North 6.9 mph - N/A   Mostly Cloudy
11:53 AM 37.0 °F 32.4 °F 18.0 °F 46% 30.24 in 10.0 mi NW 5.8 mph - N/A   Overcast
12:53 PM 37.9 °F 31.5 °F 19.9 °F 48% 30.25 in 10.0 mi WNW 9.2 mph 19.6 mph N/A   Clear
1:53 PM 41.0 °F 35.2 °F 19.9 °F 43% 30.22 in 10.0 mi North 9.2 mph 16.1 mph N/A   Clear
2:53 PM 41.0 °F 35.2 °F 19.0 °F 41% 30.22 in 10.0 mi NNW 9.2 mph - N/A   Mostly Cloudy
3:53 PM 42.1 °F 37.1 °F 17.1 °F 37% 30.23 in 10.0 mi North 8.1 mph 18.4 mph N/A   Scattered Clouds
4:53 PM 41.0 °F 34.7 °F 19.9 °F 43% 30.26 in 10.0 mi NW 10.4 mph - N/A   Mostly Cloudy
5:53 PM 39.0 °F 31.4 °F 16.0 °F 39% 30.28 in 10.0 mi NNE 12.7 mph - N/A   Clear
6:53 PM 37.0 °F 29.3 °F 17.1 °F 44% 30.30 in 10.0 mi NNE 11.5 mph - N/A   Clear
7:53 PM 34.0 °F 25.0 °F 18.0 °F 52% 30.32 in 10.0 mi NNE 12.7 mph - N/A   Clear
8:53 PM 33.1 °F 23.9 °F 15.1 °F 48% 30.35 in 10.0 mi NNE 12.7 mph - N/A   Clear
9:53 PM 32.0 °F - 16.0 °F 52% 30.36 in 10.0 mi Calm Calm - N/A   Clear
10:53 PM 30.9 °F - 15.1 °F 52% 30.38 in 10.0 mi Calm Calm - N/A   Clear